GFSGBSN_925_spd_132.txt.gz
Wind_Speed
19 19 18 18 17 18 18 18 18 19 18 18 18 18 18 18 19 19 19 19 20 18 16 15 12 8 3 1 7 5 6 9 10 9 8 3 2 1 2 3 7 4 9 8 8 9 5
21 20 21 21 21 20 20 20 20 21 20 19 19 20 20 21 21 21 21 20 21 18 15 12 8 4 1 3 3 6 9 9 8 12 7 5 5 4 7 8 6 8 11 7 6 5 7
19 19 20 21 21 23 23 23 22 22 22 21 21 21 22 22 22 23 24 21 22 16 13 9 3 2 1 10 4 4 6 10 14 13 4 10 11 3 3 3 4 9 12 9 2 2 4
20 22 22 23 23 25 26 24 24 24 24 24 24 24 24 24 24 25 25 21 21 13 7 4 1 2 6 7 5 10 7 9 11 15 17 18 14 4 3 3 3 3 3 4 5 6 3
21 23 24 25 26 27 28 27 25 25 25 26 26 25 26 27 27 27 26 23 18 6 2 2 2 1 8 8 7 15 15 11 12 18 18 13 4 1 4 3 3 2 5 3 5 8 2
21 23 23 24 25 26 26 27 29 29 29 27 27 27 28 29 29 29 27 21 8 0 2 1 2 4 5 4 6 15 15 15 5 3 4 1 5 3 3 4 4 4 4 6 8 8 9
21 22 23 24 25 26 25 26 26 27 29 28 28 28 28 28 27 31 26 5 4 2 3 8 7 6 6 12 8 11 11 4 2 4 5 2 4 6 11 7 7 4 6 11 5 9 7
20 22 23 24 25 27 28 25 25 26 29 30 29 30 31 29 31 23 9 1 6 3 8 11 16 11 17 16 3 5 10 5 1 4 1 5 7 12 7 8 7 7 7 3 2 10 5
21 22 23 25 27 28 28 24 24 25 28 30 30 30 31 31 25 4 15 12 22 27 3 10 7 6 7 10 9 9 9 5 4 3 5 7 11 9 8 11 9 8 9 9 8 13 11
20 20 22 25 28 29 28 26 23 24 28 30 30 30 31 34 3 18 12 10 27 14 4 7 4 6 4 6 4 9 19 7 4 11 6 7 15 11 9 9 6 6 3 14 14 11 5
20 21 21 23 27 28 27 26 25 25 28 30 31 29 30 26 19 8 10 23 27 3 3 5 6 4 9 8 3 2 14 3 7 9 1 10 7 5 8 7 4 6 3 8 6 5 4
20 20 21 23 27 27 27 27 26 27 30 32 31 28 32 14 15 21 15 29 6 5 6 4 8 7 7 4 4 5 5 2 3 3 4 9 8 5 8 2 2 3 6 8 5 3 2
20 21 23 24 27 27 27 27 27 28 31 32 33 33 32 22 7 7 21 5 4 3 5 6 7 7 9 7 4 7 6 4 5 2 4 7 5 4 4 2 5 7 7 4 4 3 6
19 21 23 24 26 26 26 28 28 29 32 34 37 36 25 26 20 9 4 5 4 5 6 2 2 6 9 9 7 7 6 4 5 3 2 3 7 6 3 6 6 3 8 6 5 4 6
22 21 21 23 25 24 26 26 28 30 33 37 37 24 17 20 12 11 5 3 8 5 4 7 6 6 5 6 8 7 10 8 8 10 7 5 6 2 7 5 9 2 1 7 5 1 2
19 19 19 21 23 22 23 25 28 30 33 30 26 13 10 6 14 13 4 5 5 1 8 5 2 3 5 6 8 8 10 8 6 10 7 6 3 2 5 5 1 9 5 4 3 2 2
15 15 18 20 21 20 21 24 26 29 33 23 10 4 12 15 19 5 3 6 6 7 10 7 7 7 7 8 9 8 9 4 8 7 7 3 4 6 4 3 8 1 1 3 5 5 4
15 15 17 19 19 18 19 22 23 26 31 19 7 4 11 11 3 2 3 5 5 14 15 9 6 8 7 7 8 6 2 3 4 5 4 2 6 1 5 5 3 7 9 6 5 5 2
14 14 16 18 16 17 18 19 19 22 23 14 3 3 5 9 2 3 6 7 8 14 13 5 7 12 11 9 3 5 7 1 8 5 5 0 2 3 9 7 7 5 3 2 3 3 5
14 14 15 15 14 16 16 16 17 18 19 14 3 4 4 4 1 1 6 6 7 9 9 8 11 13 11 6 3 5 6 3 5 6 9 9 3 6 6 6 2 5 8 3 5 3 4
12 12 13 12 13 14 13 14 16 18 20 6 1 3 3 4 5 7 2 4 10 11 7 7 6 7 12 5 3 5 4 6 7 5 5 5 5 5 6 6 2 4 7 7 3 5 5
11 10 12 13 12 12 12 13 15 18 16 0 1 3 4 4 5 6 3 4 8 13 6 5 12 22 16 6 8 9 8 5 5 2 4 2 2 4 2 4 4 3 6 6 5 4 5
11 11 12 12 12 12 12 12 12 17 12 4 6 6 2 4 5 4 3 7 16 9 7 10 17 16 9 6 9 10 9 10 12 10 5 7 5 3 2 3 3 3 3 2 3 6 2
9 11 11 12 12 12 12 11 11 11 11 5 4 4 1 4 3 3 13 17 8 5 7 15 15 6 5 23 3 6 5 9 12 5 8 7 6 3 3 4 2 6 3 4 6 3 5
11 10 11 11 12 11 12 11 10 8 8 8 7 3 2 4 4 10 8 9 8 6 7 13 10 9 16 11 4 5 5 5 2 9 7 6 5 3 4 4 3 1 1 2 2 2 3
13 12 10 9 13 12 11 11 10 9 8 9 8 6 4 2 5 2 6 8 4 4 5 5 17 14 6 2 2 4 3 6 4 6 4 6 6 5 3 5 5 7 4 3 3 3 1
11 12 14 12 12 12 13 11 10 9 7 8 8 5 4 3 5 3 2 4 5 3 2 5 9 10 6 3 3 2 2 4 5 8 5 4 3 6 3 3 4 4 6 4 2 6 5
10 11 12 12 10 10 12 11 9 8 7 8 11 7 4 3 7 8 6 4 4 3 3 5 7 4 4 4 2 2 2 3 4 3 7 6 5 3 3 3 4 6 2 4 5 2 5
10 11 12 13 12 9 8 10 9 9 6 6 7 6 14 6 6 24 29 31 26 21 3 1 2 1 3 2 4 4 2 3 4 3 3 2 5 5 6 6 4 2 2 2 7 6 6

GFSGBSN_925_spd_135.txt.gz
Wind_Speed
19 20 20 20 21 21 20 21 21 20 20 20 20 20 20 20 19 19 19 20 19 20 14 11 7 4 2 2 7 4 4 14 15 9 6 4 3 3 2 4 6 3 3 5 5 11 7
20 21 21 21 22 24 22 21 21 21 21 21 22 22 22 22 22 22 21 20 19 19 14 9 3 0 2 2 3 5 9 13 12 13 7 6 4 4 4 4 7 4 6 4 3 6 6
21 21 21 21 23 25 27 26 24 23 24 23 24 23 24 25 25 25 23 23 18 15 11 4 2 3 2 9 1 4 10 11 14 13 5 9 4 1 2 2 7 10 5 4 3 2 5
20 22 22 23 24 25 25 25 26 26 26 26 25 25 25 26 26 25 25 23 19 12 4 1 6 3 6 2 5 8 11 4 8 11 9 8 7 3 3 1 5 3 4 2 4 2 4
20 22 22 23 24 26 26 25 25 25 26 27 27 27 27 27 27 27 27 23 14 1 3 5 3 2 7 6 5 15 14 5 7 10 12 12 2 2 4 5 4 2 3 4 3 9 3
20 21 23 24 25 27 28 25 24 24 25 27 28 28 29 30 29 30 25 14 3 5 5 1 2 3 5 1 4 11 13 13 5 2 1 3 5 2 3 3 6 6 4 3 5 6 4
19 21 22 24 25 27 28 25 23 24 25 28 29 29 30 30 31 32 18 1 4 3 3 6 7 5 6 9 2 7 15 6 3 5 4 3 3 7 10 6 3 2 3 6 7 8 6
19 20 20 23 25 27 28 28 25 23 25 28 29 30 31 31 35 19 8 4 5 2 8 9 13 6 14 1 3 5 7 4 4 4 4 5 5 11 2 4 4 5 5 4 2 8 5
19 20 20 21 24 27 27 27 25 24 25 27 30 32 31 31 23 4 18 3 7 17 3 7 6 6 6 11 7 7 10 5 3 3 4 6 7 4 5 5 4 4 5 6 7 4 2
19 21 20 21 24 26 27 27 27 26 26 27 30 31 33 34 4 20 11 7 19 3 4 6 4 6 6 6 3 11 13 6 2 8 5 6 5 5 5 7 5 8 8 11 7 6 4
19 21 21 22 23 25 26 27 27 27 27 28 30 32 33 28 17 6 8 17 17 3 4 2 4 4 5 8 3 5 6 5 8 6 5 7 5 4 6 11 8 9 6 11 8 7 3
18 19 21 22 24 26 26 28 28 27 27 28 30 33 34 12 14 18 9 21 2 5 6 4 8 6 6 3 2 2 3 4 3 5 2 8 4 4 9 5 8 6 7 9 6 4 2
17 18 21 22 23 26 26 28 28 28 30 30 35 34 31 20 5 5 13 4 4 3 5 3 5 4 7 6 2 5 7 6 5 4 3 4 5 4 4 4 4 7 7 3 2 2 6
18 19 21 21 23 25 25 27 29 29 32 33 38 37 22 22 11 12 2 5 3 4 6 5 4 3 8 7 6 7 5 4 4 4 2 4 5 6 3 5 7 2 7 6 5 4 4
17 16 18 19 22 24 24 26 29 29 33 37 37 23 16 8 7 13 5 3 8 6 4 7 8 4 3 2 4 4 8 6 8 10 8 5 6 4 5 5 8 3 2 3 7 1 2
18 16 16 20 22 24 23 25 28 29 32 33 27 12 9 10 13 10 4 5 4 2 5 4 2 4 2 1 1 6 8 6 6 11 5 5 2 3 2 5 4 7 8 4 3 2 3
18 16 16 18 21 20 22 23 25 28 32 24 9 4 12 11 8 5 4 6 4 4 7 6 2 4 3 2 5 6 9 8 6 5 8 6 4 5 3 3 5 2 2 6 5 4 5
18 16 15 17 19 19 20 21 22 26 32 19 6 3 3 7 4 1 3 4 4 5 4 6 5 9 6 3 5 6 11 7 9 10 10 5 5 3 3 2 3 2 3 4 5 5 1
15 14 14 16 17 17 18 17 20 22 24 12 3 3 1 6 0 3 5 4 2 3 4 4 4 4 5 5 3 6 6 1 8 6 9 7 2 3 6 6 5 6 1 4 5 3 5
14 13 13 15 15 15 16 16 18 20 21 10 2 4 4 4 1 2 3 4 4 5 5 6 7 1 5 4 9 6 3 3 2 5 8 9 4 6 6 6 4 1 2 3 5 3 4
12 13 12 15 15 15 15 16 18 20 21 3 2 2 2 3 2 3 3 2 3 5 4 7 4 6 5 5 3 7 2 4 7 3 4 5 4 4 3 3 2 2 3 2 5 5 5
11 12 12 14 14 14 14 16 17 19 16 3 2 3 4 3 3 4 3 1 3 3 2 4 2 15 9 6 5 6 4 2 5 2 4 4 1 2 1 1 2 2 2 7 4 5 5
10 11 13 13 13 13 14 14 15 17 13 5 4 3 2 3 4 2 3 2 6 6 6 7 5 9 12 6 12 16 16 10 12 10 5 5 6 3 1 2 4 3 3 4 3 2 5
12 10 11 13 12 12 12 13 13 12 12 6 2 2 1 4 1 3 7 9 9 4 5 13 7 6 6 18 19 2 5 5 11 3 6 7 5 3 3 2 1 6 4 3 7 3 1
14 13 11 10 10 12 13 12 11 10 9 9 5 1 0 4 2 10 7 4 8 6 6 12 9 7 13 10 4 3 5 4 1 3 4 5 6 3 5 4 4 1 4 5 5 3 3
13 13 13 14 12 12 12 13 10 10 9 9 9 3 3 2 4 2 5 5 4 4 5 6 6 7 4 3 2 4 5 7 5 4 6 7 7 5 3 5 6 7 2 5 4 3 7
13 12 12 12 14 13 12 12 11 10 8 8 7 8 3 3 5 2 3 1 5 3 4 6 6 5 3 3 2 3 3 5 7 9 6 3 4 6 3 3 5 6 4 3 5 7 7
12 11 11 11 12 12 11 10 11 8 7 7 10 9 4 3 9 10 12 7 2 2 2 5 6 3 4 5 2 3 2 1 3 5 8 6 6 4 3 4 4 6 5 6 7 1 5
11 12 12 13 14 15 12 10 9 8 7 5 6 5 10 5 6 25 23 25 23 15 3 3 3 2 3 3 3 4 3 3 1 3 2 3 6 6 6 6 5 6 5 5 6 6 5

GFSGBSN_925_spd_138.txt.gz
Wind_Speed
21 21 21 21 23 25 24 22 20 20 21 22 21 19 19 19 19 18 19 17 19 15 14 10 8 4 2 1 7 1 2 19 15 9 8 5 4 3 2 2 5 3 1 4 0 9 5
20 21 21 21 22 24 25 24 24 24 23 24 24 23 23 22 22 20 18 19 18 15 13 8 5 0 1 2 3 1 5 18 11 10 8 7 4 4 1 3 4 6 5 3 5 5 3
20 21 22 22 23 25 25 23 23 22 23 24 25 25 26 26 25 24 23 20 16 13 10 4 2 2 0 7 1 3 8 9 12 13 4 6 3 2 1 2 1 6 5 2 2 3 4
19 21 22 23 24 26 27 25 22 22 23 25 26 27 27 27 27 26 26 23 15 8 4 2 4 2 6 1 2 5 9 5 8 11 7 0 3 1 2 2 4 4 4 2 4 6 4
20 21 22 24 25 27 28 27 24 22 23 26 27 29 29 29 28 29 28 18 6 5 7 7 3 2 7 3 5 7 11 4 7 8 7 4 1 1 3 5 3 3 2 4 1 7 3
19 21 22 24 25 27 27 27 27 24 23 26 28 30 30 30 32 31 20 4 8 7 7 3 1 1 4 3 4 5 11 9 2 3 2 3 5 3 3 4 5 5 3 2 5 5 3
19 20 22 23 24 26 28 28 27 25 25 26 29 31 32 32 35 22 9 4 3 2 3 6 5 3 5 6 2 5 7 9 3 5 3 3 3 5 8 3 3 4 3 5 3 8 6
19 20 22 22 23 26 27 28 28 28 27 27 30 32 34 34 31 8 11 4 6 1 7 9 12 6 9 2 3 0 9 4 4 4 4 5 5 7 4 3 3 2 2 5 3 6 4
19 21 23 22 24 26 28 28 29 29 28 27 29 31 34 36 21 5 10 6 3 6 2 7 6 5 6 11 7 7 10 4 3 5 5 6 4 7 5 4 4 3 5 4 4 4 3
19 20 23 24 25 26 28 28 29 30 29 28 30 30 34 37 6 19 6 0 17 5 4 6 4 6 5 6 3 10 12 6 3 9 8 5 4 5 5 5 7 3 8 6 7 6 3
19 19 19 22 25 26 28 29 30 30 29 28 30 31 33 31 16 5 4 14 11 3 4 3 3 5 3 9 3 3 6 5 8 6 6 7 3 4 4 7 8 9 1 5 4 5 5
18 18 19 23 24 25 27 28 29 30 29 29 30 31 33 13 10 16 8 16 2 5 6 3 6 5 5 2 2 3 4 5 4 5 1 6 2 6 8 3 8 5 5 9 6 3 2
18 20 18 19 22 24 26 28 29 30 30 31 32 33 28 17 5 7 11 3 4 3 6 4 2 4 5 5 3 4 6 6 6 4 2 4 5 3 4 4 4 5 5 4 3 2 5
18 19 17 18 20 25 27 27 29 31 32 33 36 32 18 14 7 4 1 4 4 3 6 5 3 2 7 6 3 3 6 4 2 4 3 5 5 6 4 6 7 4 6 6 5 4 4
18 19 18 19 19 24 25 27 28 30 32 36 32 18 9 6 7 9 4 3 6 5 4 7 7 1 2 2 2 4 6 7 9 9 8 5 5 4 4 4 8 4 2 4 8 4 3
19 20 18 17 20 24 23 26 27 30 32 32 24 10 9 10 9 5 4 5 2 3 5 5 3 4 2 0 2 6 7 5 7 12 4 6 1 1 2 5 6 5 7 4 3 4 3
17 18 17 17 20 22 23 24 25 30 32 25 7 3 9 15 2 5 3 5 3 5 5 5 1 4 3 3 1 4 6 4 6 6 7 6 3 3 1 2 8 2 1 6 5 4 5
17 17 17 16 18 19 22 21 24 28 33 19 6 2 3 7 3 1 1 2 3 4 3 4 3 6 5 2 4 3 7 8 7 9 10 6 5 3 0 4 2 4 5 5 5 4 1
16 15 15 15 18 19 20 20 22 23 27 11 2 2 1 2 2 2 5 4 2 4 4 5 4 5 3 3 3 6 6 5 10 9 11 9 1 3 5 6 3 6 3 5 5 4 6
14 14 14 15 18 18 18 19 21 22 24 6 2 3 4 4 1 3 4 4 4 4 3 2 4 5 5 3 6 6 4 4 3 4 8 8 4 7 7 7 4 5 3 4 5 4 5
13 13 14 14 16 16 17 18 20 21 21 4 3 0 2 3 2 3 2 2 3 3 2 4 1 5 2 4 4 5 4 4 3 5 4 4 5 3 2 4 3 4 5 7 6 5 5
12 12 13 15 16 16 16 17 18 20 17 4 2 2 4 2 4 2 1 1 1 3 2 4 3 3 3 4 4 4 8 4 4 2 3 3 2 3 2 1 3 3 2 6 4 4 2
14 11 12 14 15 15 15 17 17 19 13 5 4 2 2 2 2 1 3 0 2 8 6 8 3 6 7 9 4 8 12 18 13 5 2 4 7 4 2 2 3 3 6 4 3 3 7
16 14 12 11 10 12 14 15 15 15 14 6 3 2 2 3 1 3 3 6 11 6 5 9 9 5 5 8 16 11 5 10 10 8 2 7 5 3 4 2 2 6 4 4 4 3 3
15 14 14 12 11 12 10 13 14 12 12 6 3 1 0 3 2 8 4 3 6 6 5 8 13 12 6 5 4 6 4 3 4 5 2 2 6 4 5 4 4 1 4 6 6 7 5
17 15 14 13 14 15 12 12 12 11 11 9 7 3 1 2 4 3 3 3 3 3 5 4 6 7 2 3 3 4 3 4 5 3 4 5 6 5 3 5 6 8 4 4 4 3 9
16 14 13 12 11 12 11 11 10 10 10 7 6 6 3 3 5 4 3 2 3 2 3 5 6 6 2 1 4 4 6 3 5 9 6 4 3 6 3 3 6 6 4 4 5 7 6
13 12 11 12 13 13 13 11 9 9 8 6 8 9 6 3 8 11 8 5 5 3 3 4 6 2 3 1 3 0 4 3 6 4 7 7 7 4 4 4 4 7 5 8 7 2 5
13 12 12 13 13 13 12 14 9 6 7 6 5 5 7 6 6 23 26 26 21 19 3 1 3 5 2 3 1 3 1 0 2 4 2 2 6 7 7 7 4 7 3 4 4 3 3

GFSGBSN_925_spd_141.txt.gz
Wind_Speed
21 21 20 21 23 24 22 20 20 19 19 20 21 20 20 19 19 18 17 18 17 13 11 10 8 5 2 2 4 3 10 19 16 11 7 6 6 3 1 2 3 2 3 5 4 9 4
20 22 22 23 24 25 25 22 19 19 19 20 21 21 21 21 21 20 20 19 19 15 11 9 4 1 0 3 1 1 14 20 13 9 7 5 3 3 2 0 2 2 6 6 5 7 7
20 21 21 23 24 26 27 24 22 20 19 21 22 23 24 23 23 25 24 22 18 14 10 6 3 2 1 2 2 6 12 14 12 9 4 3 0 2 1 3 3 6 4 6 5 7 3
20 21 22 23 24 26 27 27 26 22 21 22 23 25 26 26 27 28 26 18 13 8 5 4 6 2 5 2 4 8 10 8 10 9 2 1 1 1 2 7 3 3 2 1 5 7 1
20 21 23 23 23 25 27 27 27 25 23 23 24 26 27 29 32 30 20 7 5 5 6 7 2 2 2 2 4 9 12 6 8 7 5 1 1 0 3 5 3 1 1 3 3 9 5
19 21 23 22 23 24 26 27 27 27 26 25 25 27 28 29 35 21 10 5 9 7 7 2 1 3 4 4 4 8 13 9 4 7 4 2 1 3 2 6 5 4 5 3 4 9 9
18 20 24 23 23 24 26 28 27 28 27 26 26 28 29 30 34 11 6 1 2 2 3 6 2 3 2 2 4 4 8 7 3 3 5 2 6 10 10 5 1 4 6 7 1 7 9
19 20 22 23 24 26 27 28 28 28 28 27 26 28 30 31 28 5 9 1 5 3 8 10 14 9 9 4 2 5 13 7 5 6 5 4 11 7 3 5 4 3 5 6 1 3 9
18 19 21 22 24 26 27 28 29 28 28 27 27 28 30 32 17 6 4 7 4 6 4 5 5 5 5 11 4 9 13 6 4 6 7 9 1 3 8 6 8 7 11 5 3 4 4
17 17 18 19 23 25 26 28 29 28 27 26 27 28 31 32 6 16 2 4 13 4 3 3 4 5 7 6 5 6 12 7 3 9 7 6 5 6 6 9 10 12 12 6 4 4 3
19 18 19 19 20 22 25 28 28 27 27 26 27 28 31 27 12 4 2 12 7 2 4 3 3 5 4 10 7 7 4 5 10 7 6 5 8 9 7 11 14 11 3 5 5 6 3
17 18 19 18 19 22 26 28 28 28 28 28 28 30 29 11 8 9 5 8 3 2 6 1 4 6 10 6 3 5 6 4 3 5 4 9 1 4 6 4 18 12 7 7 6 2 5
19 19 20 18 19 20 25 26 28 28 29 30 31 29 24 13 3 6 7 2 3 4 3 3 1 4 12 9 8 6 12 12 9 7 9 6 12 4 6 5 6 9 10 4 4 3 4
18 19 20 19 19 22 25 26 27 27 29 32 33 28 13 7 8 5 2 3 6 1 3 3 3 2 9 8 6 6 9 10 6 3 3 9 8 9 10 8 8 12 10 6 7 6 6
19 19 20 18 18 22 24 26 26 28 31 36 30 12 2 9 7 5 3 7 4 3 3 6 4 2 5 5 4 7 9 9 12 15 8 6 7 2 5 3 5 6 6 2 5 1 4
17 17 19 19 20 21 23 25 26 29 31 30 20 7 7 9 8 2 3 5 1 2 4 2 1 2 0 0 7 7 8 5 11 16 15 3 6 3 3 5 9 4 10 4 1 9 10
18 17 17 17 18 21 23 24 26 30 32 25 5 1 4 8 4 0 3 3 2 4 4 2 1 3 2 2 1 3 5 4 8 11 15 9 4 4 5 6 12 5 5 4 3 2 9
17 16 16 17 18 21 22 23 25 28 33 19 5 1 7 11 1 1 1 1 2 2 3 2 1 4 5 5 3 4 6 7 3 12 13 10 3 6 1 1 4 1 6 7 7 6 1
13 15 16 15 18 21 20 21 23 26 29 9 3 3 4 2 0 1 1 2 2 3 3 3 2 1 0 3 4 6 6 5 7 12 13 11 8 4 5 5 2 4 5 4 4 2 7
13 13 14 16 17 18 19 20 21 24 25 6 2 1 2 3 2 2 3 2 2 2 2 1 2 1 2 3 4 7 4 2 1 7 3 13 6 9 9 7 6 6 8 9 6 6 7
14 11 12 14 17 17 19 20 19 20 20 5 3 2 2 3 2 4 2 2 3 2 2 2 2 3 3 3 3 5 5 7 6 7 1 6 9 5 2 5 5 11 12 11 10 6 8
17 13 11 14 15 15 16 19 20 19 15 4 3 2 1 2 3 4 1 2 3 1 2 3 4 1 4 5 5 9 8 4 4 3 1 3 5 4 3 4 3 6 7 9 8 5 5
16 16 12 11 12 11 14 16 19 19 11 4 3 1 2 1 1 3 1 1 2 6 5 9 6 9 10 11 7 9 12 17 17 10 4 3 7 6 6 3 4 5 13 11 6 6 7
15 15 13 12 10 11 12 11 13 15 14 5 3 2 2 2 3 3 3 5 10 10 11 11 12 7 4 12 19 17 17 17 16 15 12 3 4 2 5 8 6 1 1 4 8 5 8
16 16 15 13 12 11 13 11 10 11 11 6 3 1 2 4 4 9 5 4 6 8 10 12 13 11 11 9 4 6 5 6 2 6 13 15 4 5 6 6 3 3 5 7 8 7 9
16 16 14 13 12 10 11 9 7 9 9 7 5 3 1 2 3 4 2 5 5 4 4 4 7 10 4 4 4 4 6 4 3 2 5 8 3 4 4 6 8 6 7 6 5 7 11
14 12 13 11 11 12 12 12 7 6 6 6 4 5 3 3 7 6 5 3 2 1 5 6 6 3 0 2 4 5 5 5 5 3 6 6 2 5 6 4 3 5 9 9 9 2 4
12 12 11 11 11 12 12 10 11 7 4 5 6 7 4 3 10 15 14 13 9 6 4 4 6 1 2 3 3 2 4 8 5 5 4 7 7 4 3 3 6 12 10 9 4 3 3
12 12 11 11 12 11 11 11 12 8 4 5 5 4 5 6 6 13 19 25 20 16 4 3 4 3 3 3 2 3 3 4 9 4 2 5 4 7 6 6 2 17 2 5 5 6 5

GFSGBSN_925_spd_144.txt.gz
Wind_Speed
20 20 21 22 23 24 23 20 18 17 17 18 19 19 20 19 19 19 20 18 17 16 14 12 10 5 3 7 1 1 11 17 14 10 11 11 10 6 3 1 2 3 4 4 5 8 7
20 21 21 22 22 24 24 23 21 18 18 19 19 20 21 22 22 25 23 21 19 15 11 10 6 2 5 7 3 5 13 16 13 12 10 9 6 2 4 2 3 2 4 6 4 6 4
19 20 21 21 21 23 24 24 24 21 20 20 20 22 23 25 27 31 27 21 16 12 9 6 3 1 7 4 3 7 13 13 11 9 8 6 2 7 0 3 3 6 7 6 4 5 3
18 19 21 21 21 22 23 24 24 24 23 22 22 23 24 27 31 32 24 17 9 6 3 5 5 3 3 3 6 9 11 10 8 7 3 3 3 5 6 4 6 6 6 4 5 6 4
18 19 22 21 20 22 23 25 25 25 25 24 23 24 25 27 32 27 18 8 5 4 5 8 2 5 5 5 7 11 11 11 12 8 5 3 4 4 6 11 8 7 5 3 6 8 2
16 18 20 22 22 24 24 24 25 25 25 24 24 25 26 27 32 20 11 4 5 7 5 2 3 5 5 9 10 13 11 12 12 12 7 8 7 10 10 10 9 4 7 5 0 8 9
16 18 19 20 21 23 24 24 25 25 25 25 24 25 26 27 32 13 10 5 5 6 8 8 2 3 8 8 10 13 15 12 12 14 12 13 11 15 14 14 8 5 4 4 6 4 6
16 16 17 16 19 22 23 25 27 25 24 24 24 25 27 26 27 5 6 4 5 5 9 11 14 13 8 2 8 12 16 13 12 14 14 9 16 16 3 4 10 10 9 6 2 1 7
18 18 18 18 19 20 22 25 27 26 24 24 24 25 27 26 16 5 6 3 3 8 7 4 9 12 12 13 10 15 19 16 14 15 15 16 5 10 9 13 13 13 13 5 5 2 8
17 18 18 18 17 18 22 25 26 25 24 24 26 26 28 27 4 10 1 3 9 5 5 9 7 7 10 11 12 11 24 14 7 13 12 13 11 7 16 18 15 15 12 9 7 7 6
17 17 18 17 17 19 22 26 26 24 24 24 25 27 27 22 12 5 2 7 7 4 5 4 7 6 10 15 13 12 22 13 13 11 8 10 11 15 15 15 17 16 12 8 9 11 7
16 17 18 19 19 22 25 27 26 24 25 26 26 28 24 7 5 8 7 8 4 6 6 5 6 10 14 18 6 12 15 14 7 10 12 16 4 8 16 11 16 17 10 7 6 7 9
16 17 18 18 19 20 25 25 25 24 26 27 29 25 19 6 2 5 7 5 6 6 3 5 4 10 17 13 11 14 17 18 12 12 13 14 15 13 9 12 8 13 16 10 10 9 9
17 18 18 18 18 20 22 24 24 25 28 31 28 18 6 4 4 5 6 7 9 2 4 2 2 6 15 12 15 12 16 17 19 14 9 11 14 19 12 17 10 19 20 11 10 9 8
17 18 18 17 18 20 23 25 25 27 29 34 23 3 1 4 6 5 7 11 3 4 3 4 6 8 13 14 7 15 15 16 15 16 14 8 13 16 9 12 12 16 16 16 14 2 8
17 17 17 17 18 21 23 23 26 29 30 28 12 3 4 7 4 8 8 14 1 2 5 4 8 2 8 16 14 12 17 14 15 15 17 7 8 14 12 8 7 10 18 10 9 13 11
14 15 15 17 19 21 23 23 26 29 31 19 4 4 3 2 2 6 8 8 4 5 4 3 2 4 3 4 10 15 11 11 9 12 18 15 10 11 9 14 15 9 9 10 10 5 11
12 13 13 16 17 22 22 22 24 29 32 13 5 3 2 4 5 2 6 2 1 7 4 4 5 6 7 4 7 8 14 11 2 7 15 19 11 11 19 5 9 13 19 17 11 14 11
12 12 14 15 17 21 22 22 22 26 28 11 5 3 1 3 5 5 3 5 4 6 7 6 9 5 2 6 4 7 8 3 3 8 5 14 11 10 9 8 7 15 15 11 13 12 8
14 12 11 14 14 18 21 22 20 22 24 7 4 3 4 3 2 6 3 5 6 4 6 4 6 6 10 13 12 8 5 0 4 7 6 5 18 16 11 13 15 17 15 15 13 10 11
16 15 11 12 15 16 18 21 21 20 19 5 2 3 3 1 4 4 5 2 5 6 6 5 5 8 5 8 11 15 16 10 13 4 5 13 16 12 18 9 8 16 16 14 16 15 12
16 17 14 11 12 14 13 18 23 20 13 3 4 4 1 6 5 7 5 8 9 6 6 10 8 8 7 10 10 12 9 10 6 2 6 10 13 15 14 12 13 12 10 13 15 15 10
15 15 16 13 12 12 13 15 17 21 12 4 3 1 5 2 5 5 5 5 4 1 7 10 11 9 12 12 10 12 11 12 13 13 9 7 12 9 15 12 11 13 14 14 15 13 13
12 14 15 14 12 11 12 13 12 13 14 5 5 6 4 7 5 6 4 4 7 9 12 10 9 11 7 9 16 18 19 19 19 18 13 8 8 11 8 9 15 4 2 9 14 14 13
12 14 15 14 11 11 10 12 7 8 8 6 3 4 3 7 6 9 12 10 8 8 12 13 13 13 9 11 10 13 13 17 17 17 15 17 8 8 7 14 7 8 6 8 10 11 11
11 12 13 13 10 9 11 11 8 5 7 5 5 3 2 4 1 6 6 5 8 8 9 9 6 7 8 8 9 13 11 12 12 7 10 13 12 5 10 17 19 9 8 6 6 10 10
10 11 12 11 10 10 11 11 10 6 5 4 4 4 5 5 8 8 7 6 4 4 6 5 3 5 7 9 10 12 13 12 16 16 10 8 8 14 11 12 8 5 11 10 11 3 7
10 12 12 10 10 11 10 9 9 9 6 5 4 5 4 4 12 16 16 13 9 7 7 5 7 6 6 8 7 7 9 11 14 12 10 10 9 9 12 14 9 13 13 12 3 5 6
10 10 11 10 10 9 9 9 8 10 7 5 6 4 7 6 9 18 19 16 16 13 8 4 8 3 3 4 3 3 4 6 11 11 3 9 6 8 9 8 4 17 7 13 4 9 7

GFSGBSN_925_spd_147.txt.gz
Wind_Speed
19 19 19 19 20 22 22 22 20 18 18 18 17 18 19 20 20 24 24 20 17 16 14 11 8 7 5 8 5 4 10 14 15 13 14 13 13 10 12 2 6 6 6 2 6 6 6
18 18 20 18 19 20 22 22 22 20 19 19 19 20 21 22 23 29 27 20 16 13 11 8 5 4 7 12 5 7 13 15 15 17 14 13 11 7 7 5 2 2 5 4 4 6 5
17 18 20 18 19 20 21 22 22 22 21 21 20 20 22 23 25 31 25 20 13 9 7 5 4 4 12 5 4 8 12 15 14 16 13 13 7 8 4 7 3 7 9 9 6 5 4
16 17 20 20 20 21 21 22 22 22 23 22 22 22 23 24 26 31 22 16 11 5 2 5 5 7 6 5 7 9 12 14 11 12 11 9 9 13 9 1 8 11 10 7 14 8 4
16 17 18 20 20 21 22 23 24 23 22 22 22 23 23 24 26 30 17 10 8 4 6 7 5 9 7 9 12 12 13 14 14 11 9 5 12 15 12 13 13 12 3 7 8 9 4
14 15 16 16 18 21 22 23 24 24 23 22 22 23 23 24 26 27 12 7 5 2 3 5 11 8 9 12 15 15 13 12 15 12 11 13 10 14 13 14 5 5 11 9 12 8 5
16 16 17 18 17 20 20 23 25 25 23 23 23 24 24 24 25 19 15 4 6 7 13 15 2 8 6 10 12 14 14 15 16 14 16 16 14 16 19 16 13 6 8 5 12 7 3
17 18 17 18 18 18 20 23 27 25 23 23 23 25 25 24 25 8 9 7 7 7 10 15 18 13 5 13 11 14 17 14 13 15 18 13 18 18 15 11 13 7 11 14 13 3 6
17 17 17 18 18 18 21 24 27 24 22 24 24 25 26 24 20 7 9 7 3 10 8 14 18 19 18 12 14 17 19 18 15 17 18 19 10 17 15 10 12 15 15 7 3 6 11
18 18 19 20 19 19 22 26 26 22 22 23 25 25 27 27 7 10 6 1 6 7 6 10 11 10 20 15 17 14 21 18 11 17 18 14 18 8 14 14 17 16 14 9 7 7 8
17 19 19 20 20 21 24 26 27 25 24 24 24 27 25 17 15 7 5 6 8 7 6 6 10 9 13 20 2 19 19 19 17 13 11 15 15 16 16 17 18 17 12 12 10 12 12
17 19 20 19 20 21 25 27 24 24 25 27 26 29 23 4 8 10 8 6 7 7 6 8 8 11 17 21 12 17 15 20 14 15 15 17 7 12 17 17 13 17 16 10 12 13 14
17 18 17 18 19 22 25 26 25 26 27 28 30 25 17 8 4 6 7 8 7 9 5 6 8 15 17 18 18 11 19 19 16 13 15 15 20 12 14 17 18 16 17 12 13 12 13
15 17 17 19 19 22 25 27 25 28 29 33 29 17 8 8 5 5 9 8 10 3 7 5 5 7 16 18 19 16 18 18 20 18 13 12 15 21 16 17 16 15 21 14 18 10 9
14 16 17 18 19 22 25 24 25 29 31 37 23 4 9 2 7 7 7 10 8 8 5 4 7 12 15 18 12 16 19 19 19 18 18 10 11 19 18 16 19 15 18 23 23 7 9
13 14 14 16 19 22 27 25 27 30 32 30 14 9 3 1 6 10 8 16 11 3 4 9 13 7 14 18 17 17 19 16 17 19 15 16 13 10 15 17 20 21 13 18 16 20 12
13 14 16 16 18 22 27 27 27 31 34 16 8 5 7 4 6 7 10 12 9 8 7 10 14 12 11 16 17 19 16 16 13 17 14 16 12 12 16 16 16 12 14 14 20 12 11
14 14 14 15 17 20 25 27 26 30 36 14 8 4 7 6 8 9 11 9 3 9 9 13 8 13 12 11 10 12 17 16 10 13 13 17 10 13 19 16 19 19 18 15 10 13 10
16 15 13 14 16 19 23 23 24 26 30 16 5 7 7 9 6 8 10 8 6 11 10 13 14 13 13 12 9 16 17 2 3 6 3 11 13 14 18 17 14 15 15 19 19 15 14
17 18 15 13 15 17 19 23 23 23 24 13 5 4 6 7 10 10 13 8 11 8 11 7 10 13 11 12 14 11 12 5 1 8 11 10 16 16 14 15 17 22 22 21 18 11 13
15 18 17 13 14 15 16 20 23 22 19 7 4 2 6 5 1 7 9 12 9 12 11 7 9 12 12 14 16 19 19 17 10 2 10 12 18 17 22 8 20 17 19 23 22 17 13
12 15 16 18 15 16 16 18 22 23 19 6 5 4 4 11 11 10 11 13 15 14 12 11 13 13 9 11 13 15 12 19 11 9 9 15 16 19 23 24 15 18 18 20 18 14 17
12 14 15 17 15 16 16 17 17 20 15 6 7 10 5 7 10 11 11 12 9 7 9 11 15 14 12 10 10 15 17 15 11 11 7 14 13 16 21 21 17 17 17 16 13 13 14
11 12 14 15 15 14 14 15 13 11 11 10 10 12 7 10 11 8 12 5 11 11 12 13 7 10 11 13 12 16 19 20 22 20 18 14 13 12 16 15 20 15 18 14 13 11 12
11 11 12 12 13 11 12 13 14 7 7 7 8 8 5 8 11 9 12 13 14 14 15 16 16 13 12 14 12 16 15 20 24 25 22 19 11 9 13 9 13 19 7 14 8 10 11
10 10 11 11 11 12 11 13 12 9 6 7 7 5 7 6 2 8 11 10 10 10 11 13 11 9 9 9 11 17 15 18 19 21 22 19 15 9 9 15 19 24 16 10 4 10 11
10 10 10 11 11 10 11 11 11 12 7 6 8 6 7 8 14 9 8 8 8 8 8 10 6 7 13 10 12 13 14 18 16 20 15 14 14 16 17 15 23 15 10 6 9 2 10
10 9 10 11 10 10 10 11 10 9 10 6 8 7 9 6 14 18 16 15 10 7 9 7 7 12 9 11 11 10 10 14 16 17 19 18 14 14 18 21 17 17 21 11 8 8 7
10 9 10 11 11 10 9 10 11 9 9 6 8 2 8 7 12 27 25 23 19 17 12 11 11 8 3 4 3 5 8 10 11 15 11 13 19 15 13 15 10 10 13 7 6 8 6